Stations météo

réclame
Mon MeteoGroup
Potsdam, Allemagne (10379): Température de l'air & dewpoint: 17.10.2018 07:00:00 - 23.10.2018 07:00:00 (CEST)Potsdam, Allemagne (10379): Température de l'air 5cm & Température de l'air -5cm: 17.10.2018 07:00:00 - 23.10.2018 07:00:00 (CEST)Potsdam, Allemagne (10379): Température de l'air -20cm & Température de l'air -100cm: 17.10.2018 07:00:00 - 23.10.2018 07:00:00 (CEST)Potsdam, Allemagne (10379): Vitesse du vent & gusts: 17.10.2018 07:00:00 - 23.10.2018 07:00:00 (CEST)Potsdam, Allemagne (10379): Direction du vent: 17.10.2018 07:00:00 - 23.10.2018 07:00:00 (CEST)Potsdam, Allemagne (10379): reduced air pressure: 17.10.2018 07:00:00 - 23.10.2018 07:00:00 (CEST)Potsdam, Allemagne (10379): visibility: 17.10.2018 07:00:00 - 23.10.2018 07:00:00 (CEST)Potsdam, Allemagne (10379): Ensoleillement: 17.10.2018 07:00:00 - 23.10.2018 07:00:00 (CEST)Potsdam, Allemagne (10379): Quantités de précipitations: 17.10.2018 07:00:00 - 23.10.2018 07:00:00 (CEST)
Date & Time tt [°C] td [°C] tt 5cm [°C] tt -5cm [°C] tt -20cm [°C] tt -100cm [°C] ff [km/h] ff [knt] fx [km/h] fx [knt] dd ppp [hPa] vv [km] sd [min] rr [mm]
23.10.2018 07:00:00 6,2 3,2 4,7 4,1 6,4 12,7 27 15 48 26 WSW 1019,8 35 0 0,0
23.10.2018 06:00:00 5,2 3,0 3,6 3,6 6,5 12,7 26 14 41 22 WSW 1021,7 35 0 0,0
23.10.2018 05:00:00 4,6 2,8 2,8 3,4 6,7 12,7 22 12 37 20 WSW 1023,4 35 0 0,0
23.10.2018 04:00:00 4,5 3,1 2,4 3,4 6,9 12,7 21 11 34 18 WSW 1024,7 35 0 0,0
23.10.2018 03:00:00 4,0 3,1 1,5 3,4 7,2 12,7 16 9 28 15 WSW 1025,9 35 0 0,0
23.10.2018 02:00:00 4,2 3,3 1,2 3,6 7,5 12,7 19 10 27 15 WSW 1027,1 35 0 0,0
23.10.2018 01:00:00 3,8 3,0 0,8 3,9 7,8 12,7 17 9 26 14 W 1028,1 40 0 0,0
23.10.2018 00:00:00 3,9 3,1 1,0 4,3 8,1 12,7 16 9 23 12 WSW 1028,5 45 0 0,0
22.10.2018 23:00:00 4,5 3,6 1,1 4,8 8,5 12,8 16 9 21 11 WSW 1029,0 45 0 0,0
22.10.2018 22:00:00 4,8 3,5 1,7 5,4 8,9 12,8 14 8 19 10 WSW 1029,3 45 0 0,0
22.10.2018 21:00:00 5,6 3,6 2,3 6,0 9,3 12,8 12 6 16 9 W 1029,4 45 0 0,0
22.10.2018 20:00:00 6,2 3,0 2,6 6,9 9,6 12,8 13 7 21 11 WNW 1029,4 45 0 0,0
22.10.2018 19:00:00 8,5 4,2 5,5 8,2 9,8 12,8 12 7 23 13 NW 1029,0 45 0 0,0
22.10.2018 18:00:00 9,1 5,1 7,5 9,3 9,9 12,8 13 7 27 15 NW 1028,6 50 11 0,0
22.10.2018 17:00:00 10,7 6,5 9,6 10,4 9,8 12,8 12 6 23 13 NW 1028,1 50 22 0,0
22.10.2018 16:00:00 10,1 8,6 9,7 10,4 9,6 12,9 12 7 28 15 WNW 1027,8 45 23 0,0
22.10.2018 15:00:00 10,1 8,8 10,2 10,7 9,4 12,9 11 6 18 10 WNW 1027,5 40 0 0,2
22.10.2018 14:00:00 9,2 7,5 9,2 9,9 9,2 12,9 15 8 39 21 N 1027,6 18 0 0,8
22.10.2018 13:00:00 9,4 8,9 9,5 9,6 9,0 12,9 14 7 26 14 WNW 1027,2 3,0 0 1,3
22.10.2018 12:00:00 9,6 8,5 9,4 9,5 8,7 12,9 15 8 26 14 WNW 1026,8 3,0 0 0,2
22.10.2018 11:00:00 11,0 6,2 11,8 8,9 8,4 12,9 11 6 18 10 W 1026,4 28 0 0,0
22.10.2018 10:00:00 9,8 5,6 10,1 8,2 8,2 12,9 13 7 18 10 SW 1026,2 30 0 0,0
22.10.2018 09:00:00 8,6 5,1 8,8 7,3 8,1 13,0 11 6 18 10 WSW 1025,9 28 0 0,0
22.10.2018 08:00:00 7,5 4,5 7,3 6,8 8,1 13,0 13 7 18 10 WSW 1025,6 25 0 0,0
22.10.2018 07:00:00 7,0 4,0 6,6 6,2 8,2 13,0 13 7 20 11 SW 1025,5 30 0 0,0
22.10.2018 06:00:00 5,6 3,7 3,3 5,6 8,3 13,0 15 8 23 12 SW 1025,7 32 0 0,0
22.10.2018 05:00:00 5,5 3,4 2,2 6,0 8,5 13,0 16 9 23 13 SW 1025,7 35 0 0,0
22.10.2018 04:00:00 6,5 3,6 2,8 6,5 8,6 13,0 18 10 22 12 SW 1025,9 35 0 0,0
22.10.2018 03:00:00 8,2 3,8 6,1 7,1 8,6 13,0 14 7 20 11 SSW 1026,4 35 0 0,0
22.10.2018 02:00:00 8,0 4,2 7,3 6,6 8,7 13,0 15 8 22 12 SSW 1026,8 40 0 0,0
22.10.2018 01:00:00 7,0 3,9 4,1 6,3 8,9 13,1 18 10 26 14 SSW 1027,2 45 0 0,0
22.10.2018 00:00:00 7,1 4,0 3,6 6,6 9,1 13,1 17 9 23 13 S 1027,4 45 0 0,0
21.10.2018 23:00:00 8,0 4,3 4,4 6,8 9,3 13,1 17 9 25 13 S 1027,5 45 0 0,0
21.10.2018 22:00:00 8,4 4,4 4,5 7,2 9,6 13,1 16 9 24 13 S 1027,6 40 0 0,0
21.10.2018 21:00:00 9,0 4,7 4,6 7,6 9,8 13,1 16 9 21 11 S 1027,7 40 0 0,0
21.10.2018 20:00:00 9,8 4,7 4,7 8,1 10,0 13,1 14 7 17 9 S 1027,7 40 0 0,0
21.10.2018 19:00:00 10,3 4,6 5,5 8,7 10,2 13,1 10 5 12 7 S 1027,7 40 0 0,0
21.10.2018 18:00:00 11,3 4,7 6,5 9,6 10,3 13,2 8 4 12 7 SSW 1027,6 35 57 0,0
21.10.2018 17:00:00 13,6 4,4 11,5 10,4 10,3 13,2 7 4 16 9 SW 1027,8 40 60 0,0
21.10.2018 16:00:00 13,7 5,1 11,7 11,0 10,2 13,2 9 5 19 10 W 1028,2 40 60 0,0
21.10.2018 15:00:00 14,0 4,9 12,9 12,1 9,8 13,2 8 4 15 8 W 1028,7 35 55 0,0
21.10.2018 14:00:00 13,4 5,3 13,3 12,8 9,1 13,2 10 5 16 9 W 1028,9 35 52 0,0
21.10.2018 13:00:00 14,2 5,2 13,5 11,5 8,5 13,2 6 4 13 7 WSW 1029,3 30 58 0,0
21.10.2018 12:00:00 12,6 6,5 11,1 7,8 8,3 13,2 4 2 10 5 S 1029,7 25 60 0,0
21.10.2018 11:00:00 9,5 7,0 7,7 6,1 8,3 13,3 4 2 7 4 S 1030,2 15 60 0,0
21.10.2018 10:00:00 6,6 6,2 3,5 5,7 8,5 13,3 2 1 8 4 WSW 1030,2 12 60 0,0
21.10.2018 09:00:00 5,5 5,2 1,9 5,5 8,7 13,3 7 4 9 5 WNW 1029,6 10 48 0,0
21.10.2018 08:00:00 5,2 4,9 1,3 5,7 8,9 13,3 8 4 12 6 WNW 1029,2 10 0 0,0
21.10.2018 07:00:00 5,6 5,2 1,1 6,1 9,2 13,3 7 4 11 6 W 1028,9 18 0 0,0
21.10.2018 06:00:00 5,8 5,2 1,8 6,5 9,5 13,3 10 5 12 6 WNW 1029,0 26 0 0,0
21.10.2018 05:00:00 6,4 5,6 2,1 7,1 9,7 13,3 10 5 13 7 W 1028,6 30 0 0,0
21.10.2018 04:00:00 7,1 5,7 2,9 7,8 9,9 13,3 10 5 14 8 W 1028,7 30 0 0,0
21.10.2018 03:00:00 7,8 5,7 4,9 8,3 10,1 13,4 10 5 15 8 W 1028,8 32 0 0,0
21.10.2018 02:00:00 8,3 5,7 6,5 8,5 10,2 13,4 10 6 16 8 W 1028,7 35 0 0,0
21.10.2018 01:00:00 9,4 5,5 6,3 9,3 10,3 13,4 13 7 22 12 W 1028,5 35 0 0,0
21.10.2018 00:00:00 9,8 5,4 8,8 9,4 10,4 13,4 15 8 22 12 W 1028,4 35 0 0,0
20.10.2018 23:00:00 9,6 4,9 8,5 9,4 10,5 13,4 11 6 19 11 W 1028,7 35 0 0,0
20.10.2018 22:00:00 9,6 4,6 8,4 9,6 10,6 13,4 16 9 21 12 W 1029,0 35 0 0,0
20.10.2018 21:00:00 9,5 4,4 7,9 9,9 10,7 13,5 16 8 22 12 W 1028,7 35 0 0,0
20.10.2018 20:00:00 9,8 4,1 8,1 10,2 10,8 13,5 11 6 18 10 W 1028,6 35 0 0,0
20.10.2018 19:00:00 10,1 3,5 8,8 10,7 10,8 13,5 12 6 18 10 WSW 1028,5 40 0 0,0
20.10.2018 18:00:00 10,9 3,4 10,4 11,3 10,8 13,5 12 7 20 11 W 1028,6 45 0 0,0
20.10.2018 17:00:00 11,3 2,8 11,0 11,7 10,7 13,5 11 6 23 13 W 1028,7 45 0 0,0
20.10.2018 16:00:00 11,8 2,2 11,9 12,3 10,4 13,5 13 7 22 12 WNW 1028,7 40 0 0,0
20.10.2018 15:00:00 12,5 2,1 13,2 12,4 9,9 13,6 11 6 22 12 W 1028,9 35 0 0,0
20.10.2018 14:00:00 12,3 1,6 13,0 12,4 9,3 13,6 16 9 24 13 WNW 1028,8 35 20 0,0
20.10.2018 13:00:00 12,7 2,7 12,8 11,6 8,7 13,6 13 7 29 15 W 1029,2 40 60 0,0
20.10.2018 12:00:00 10,7 3,3 11,4 8,3 8,5 13,6 12 7 21 11 W 1029,3 40 60 0,0
20.10.2018 11:00:00 8,0 4,7 6,4 7,1 8,4 13,6 9 5 15 8 WSW 1028,9 35 46 0,0
20.10.2018 10:00:00 6,4 5,0 6,3 6,9 8,3 13,6 9 5 16 9 WSW 1029,0 35 0 0,0
20.10.2018 09:00:00 4,9 4,1 4,9 6,0 8,3 13,6 9 5 16 9 WNW 1028,7 32 0 0,0
20.10.2018 08:00:00 4,4 3,7 4,3 5,4 8,4 13,6 10 5 14 8 W 1028,2 5 0 0,0
20.10.2018 07:00:00 3,9 3,5 0,2 4,9 8,6 13,6 9 5 12 6 N 1027,5 3,5 0 0,0
20.10.2018 06:00:00 3,8 3,3 0,1 5,3 8,8 13,6 8 4 12 6 W 1027,6 30 0 0,0
20.10.2018 05:00:00 4,2 3,4 2,7 5,7 9,0 13,6 7 4 11 6 WNW 1027,6 30 0 0,0
20.10.2018 04:00:00 4,3 3,5 1,6 5,7 9,2 13,6 13 7 16 9 N 1027,0 30 0 0,0
20.10.2018 03:00:00 4,4 4,0 0,7 5,7 9,5 13,6 11 6 13 7 NW 1027,1 35 0 0,0
20.10.2018 02:00:00 4,5 4,0 0,1 6,0 9,8 13,7 8 4 10 6 W 1026,6 35 0 0,0
20.10.2018 01:00:00 4,9 4,2 0,8 6,5 10,1 13,7 10 5 11 6 W 1026,7 35 0 0,0
20.10.2018 00:00:00 5,6 3,9 1,2 6,9 10,4 13,7 5 3 10 5 NNW 1026,4 35 0 0,0
19.10.2018 23:00:00 5,9 4,1 1,3 7,3 10,8 13,7 7 4 13 7 NNW 1026,8 40 0 0,0
19.10.2018 22:00:00 6,2 4,0 1,7 7,9 11,1 13,7 10 5 13 7 NNW 1026,6 40 0 0,0
19.10.2018 21:00:00 6,7 4,2 2,4 8,4 11,5 13,7 9 5 13 7 NW 1026,3 40 0 0,0
19.10.2018 20:00:00 7,6 3,9 3,5 9,1 11,9 13,7 10 5 12 7 NNW 1025,8 40 0 0,0
19.10.2018 19:00:00 8,5 4,2 3,8 10,0 12,2 13,7 9 5 12 7 NNW 1025,4 40 0 0,0
19.10.2018 18:00:00 10,4 4,1 6,9 11,0 12,4 13,7 8 4 14 8 NNW 1025,0 45 50 0,0
19.10.2018 17:00:00 11,7 3,9 8,6 11,9 12,5 13,7 7 4 14 8 NW 1025,0 45 60 0,0
19.10.2018 16:00:00 12,6 4,1 10,9 12,9 12,5 13,7 9 5 19 10 NNW 1024,9 45 60 0,0
19.10.2018 15:00:00 13,1 4,1 11,9 14,1 12,3 13,7 11 6 21 11 NW 1025,4 45 60 0,0
19.10.2018 14:00:00 13,7 3,9 14,7 14,8 11,8 13,7 12 7 20 11 WNW 1025,5 45 60 0,0
19.10.2018 13:00:00 13,2 5,3 13,2 14,1 11,3 13,7 10 5 18 10 NNW 1026,1 45 60 0,0
19.10.2018 12:00:00 11,6 6,2 12,5 11,3 11,2 13,7 8 4 13 7 NW 1026,5 45 60 0,0
19.10.2018 11:00:00 9,4 5,8 8,5 10,5 11,2 13,7 6 3 11 6 NNW 1026,5 35 41 0,0
19.10.2018 10:00:00 8,0 5,5 8,2 10,4 11,2 13,7 6 4 13 7 NW 1026,2 28 0 0,0
19.10.2018 09:00:00 7,3 5,6 7,5 9,9 11,3 13,7 7 4 15 8 NNW 1025,8 30 0 0,0
19.10.2018 08:00:00 7,7 6,0 7,7 9,9 11,4 13,7 10 5 17 9 NNW 1025,3 35 0 0,0
19.10.2018 07:00:00 8,4 6,4 8,0 10,0 11,5 13,7 10 5 16 8 NW 1024,8 45 0 0,0
19.10.2018 06:00:00 8,7 6,2 8,2 10,2 11,7 13,7 8 4 19 10 N 1024,7 45 0 0,0
19.10.2018 05:00:00 9,4 6,3 8,7 10,6 11,8 13,8 9 5 18 10 N 1024,6 40 0 0,0
19.10.2018 04:00:00 10,2 6,5 9,9 10,9 11,9 13,8 11 6 21 12 N 1024,5 40 0 0,0
19.10.2018 03:00:00 10,8 7,0 10,3 11,1 11,9 13,8 12 7 22 12 N 1024,5 40 0 0,0
19.10.2018 02:00:00 11,3 7,3 10,8 11,3 12,0 13,8 9 5 23 12 N 1024,5 40 0 0,0
19.10.2018 01:00:00 11,8 7,2 11,2 11,5 12,1 13,8 13 7 24 13 N 1024,5 40 0 0,0
19.10.2018 00:00:00 12,1 8,2 11,7 11,7 12,1 13,8 12 6 26 14 N 1024,3 35 0 0,0
18.10.2018 23:00:00 12,3 9,5 11,9 11,9 12,2 13,8 10 5 21 11 N 1024,1 30 0 0,0
18.10.2018 22:00:00 12,6 10,3 12,2 12,1 12,2 13,8 12 6 24 13 N 1023,8 15 0 0,0
18.10.2018 21:00:00 12,8 10,9 12,3 12,3 12,2 13,8 13 7 30 16 N 1023,2 10 0 0,0
18.10.2018 20:00:00 13,0 11,9 12,6 12,4 12,1 13,8 13 7 24 13 N 1022,7 6 0 0,0
18.10.2018 19:00:00 13,4 12,5 13,0 12,5 12,1 13,8 8 4 16 8 NW 1022,1 3,2 0 0,0
18.10.2018 18:00:00 13,4 11,7 13,2 12,6 12,0 13,8 8 5 13 7 W 1021,6 6 0 0,0
18.10.2018 17:00:00 13,3 11,5 13,3 12,8 11,8 13,9 8 5 14 8 W 1021,5 5 0 0,0
18.10.2018 16:00:00 13,1 11,4 13,3 12,9 11,6 13,9 9 5 17 9 WNW 1021,5 3,8 0 0,0
18.10.2018 15:00:00 13,1 11,0 13,5 12,9 11,3 13,9 10 5 21 11 NW 1021,4 4,2 0 0,0
18.10.2018 14:00:00 12,6 10,5 13,1 12,5 11,0 13,9 11 6 25 14 NW 1021,4 3,5 0 0,0
18.10.2018 13:00:00 11,4 9,6 12,3 12,1 10,6 13,9 16 9 27 15 NW 1021,6 2,8 2 0,0
18.10.2018 12:00:00 12,4 8,7 13,3 11,0 10,3 13,9 15 8 24 13 W 1021,1 5 60 0,0
18.10.2018 11:00:00 11,7 8,8 10,1 9,4 10,3 13,9 11 6 17 9 W 1020,9 7 60 0,0
18.10.2018 10:00:00 9,4 8,4 8,6 8,6 10,3 13,9 10 5 16 8 W 1020,8 4,0 48 0,0
18.10.2018 09:00:00 8,8 8,0 7,2 8,1 10,4 13,9 10 6 14 8 WNW 1020,6 2,8 28 0,0
18.10.2018 08:00:00 8,2 7,5 5,1 8,0 10,6 13,9 10 6 13 7 WNW 1020,2 3,0 0 0,0
18.10.2018 07:00:00 8,7 8,2 6,0 8,2 10,8 13,9 6 4 10 5 WNW 1019,6 10 0 0,0
18.10.2018 06:00:00 9,4 8,8 5,4 8,4 11,0 13,9 7 4 9 5 N 1019,4 15 0 0,0
18.10.2018 05:00:00 9,1 7,9 5,2 8,7 11,2 13,9 2 1 6 4 NW 1019,4 16 0 0,0
18.10.2018 04:00:00 9,5 8,3 5,4 9,0 11,4 13,9 6 4 9 5 NW 1019,4 16 0 0,0
18.10.2018 03:00:00 10,7 8,5 6,5 9,3 11,6 13,9 8 4 9 5 WNW 1019,7 16 0 0,0
18.10.2018 02:00:00 11,0 8,9 6,2 9,6 11,8 13,9 2 1 4 2 S 1019,5 18 0 0,0
18.10.2018 01:00:00 11,3 8,6 6,6 9,9 12,0 13,9 3 1 10 6 S 1019,7 18 0 0,0
18.10.2018 00:00:00 12,5 9,1 7,7 10,3 12,2 13,9 9 5 13 7 SE 1019,6 20 0 0,0
17.10.2018 23:00:00 13,4 9,1 8,5 10,6 12,5 13,9 7 4 10 5 SE 1019,7 20 0 0,0
17.10.2018 22:00:00 12,9 9,0 8,2 11,1 12,7 13,9 6 4 13 7 SE 1019,8 20 0 0,0
17.10.2018 21:00:00 14,0 9,4 8,8 11,5 12,9 13,9 14 7 17 9 ESE 1019,3 20 0 0,0
17.10.2018 20:00:00 15,2 9,4 9,6 12,1 13,1 13,9 14 7 16 8 ESE 1019,3 18 0 0,0
17.10.2018 19:00:00 15,9 9,4 9,9 12,9 13,3 13,9 9 5 11 6 E 1019,1 12 0 0,0
17.10.2018 18:00:00 17,0 9,1 11,9 13,8 13,3 13,9 7 4 9 5 ESE 1018,7 16 40 0,0
17.10.2018 17:00:00 18,9 8,5 14,8 14,6 13,2 13,9 4 2 9 5 E 1018,5 20 60 0,0
17.10.2018 16:00:00 19,8 8,1 18,4 15,2 12,9 13,9 5 3 11 6 SSE 1018,4 22 60 0,0
17.10.2018 15:00:00 19,7 7,5 18,6 15,9 12,4 13,9 4 2 12 7 SE 1018,6 22 60 0,0
17.10.2018 14:00:00 20,2 7,5 20,6 16,0 11,8 13,9 6 3 14 8 ESE 1019,0 18 60 0,0
17.10.2018 13:00:00 18,8 8,0 19,0 14,7 11,1 14,0 7 4 15 8 E 1019,2 15 60 0,0
17.10.2018 12:00:00 17,5 8,0 17,4 11,5 10,8 14,0 4 2 10 5 SE 1019,7 15 60 0,0
17.10.2018 11:00:00 14,2 7,7 11,0 9,6 10,8 14,0 2 1 6 4 WSW 1019,8 15 60 0,0
17.10.2018 10:00:00 10,4 7,2 8,6 9,0 10,8 14,0 4 2 12 7 SSE 1020,0 14 60 0,0
17.10.2018 09:00:00 8,5 6,5 6,7 8,7 11,0 14,0 10 6 14 7 SSE 1020,0 13 38 0,0
17.10.2018 08:00:00 8,9 6,8 7,1 8,6 11,2 14,0 7 4 9 5 SSE 1019,7 13 0 0,0
17.10.2018 07:00:00 9,8 7,5 6,8 8,9 11,4 14,0 7 4 11 6 SE 1019,3 15 0 0,0

tt = Température de l'air
td = dewpoint
tt 5cm = Température de l'air 5cm
tt -5cm = Température de l'air -5cm
tt -20cm = Température de l'air -20cm
tt -100cm = Température de l'air -100cm
ff = Vitesse du vent
fx = gusts
dd = Direction du vent
ppp = reduced air pressure
vv = visibility
sd = Ensoleillement
rr = Quantités de précipitations

stations d'obs. à proximité